EHI
24 26 33 35 28 20 14 10 5 3 2 2 1 1 1 0 0 0 0 0 0 0 0 0 0 0 0 0 1 1 1 0 0 0 0 0 0 0 0 0 0 0 0
26 26 31 33 27 19 13 8 4 2 1 1 0 0 0 0 0 0 0 0 0 0 0 0 0 0 0 0 0 0 0 0 0 0 0 0 0 0 0 0 0 0 0
25 23 25 28 24 17 10 7 5 3 1 0 0 0 0 0 0 0 0 0 0 0 1 1 1 0 0 0 0 0 0 0 0 0 0 0 0 0 0 0 0 0 0
22 19 20 24 22 14 9 7 5 4 2 1 0 0 0 0 0 0 0 0 0 0 1 1 1 0 0 0 0 0 0 0 0 0 0 0 0 0 0 0 0 0 0
18 16 20 26 23 15 10 7 4 3 2 1 0 0 0 0 0 1 0 0 0 0 0 1 1 0 0 0 0 0 0 0 0 0 0 0 0 0 0 0 0 0 0
15 17 24 29 26 20 15 9 4 2 1 0 0 0 0 0 0 0 0 0 0 0 0 0 0 0 0 0 0 0 0 0 0 0 0 0 0 0 0 0 0 0 0
15 18 23 27 27 24 19 12 7 3 1 0 0 0 0 0 0 0 0 0 0 0 0 0 0 0 0 0 0 0 0 0 0 0 0 0 0 0 0 0 0 0 0
16 18 21 23 23 23 20 14 9 5 1 0 0 0 0 0 0 0 0 0 0 0 0 0 0 0 0 0 0 0 0 0 0 0 0 0 0 0 0 0 0 0 0
16 17 18 18 17 16 15 13 9 5 1 0 0 0 0 0 0 0 0 0 0 0 0 0 0 0 0 0 0 0 0 0 0 0 0 0 0 0 0 0 0 0 0
15 16 16 14 12 10 9 9 6 3 1 0 0 0 0 0 0 0 0 0 0 0 0 0 0 0 0 0 0 0 0 0 0 0 0 0 0 0 0 0 0 0 0
13 14 15 13 10 7 6 5 3 2 1 0 0 0 0 0 0 0 0 0 0 0 0 0 0 0 0 0 0 0 0 0 0 0 0 0 0 0 0 0 0 0 0
11 12 14 14 12 9 7 5 3 1 0 0 0 0 0 0 0 0 0 0 0 0 0 0 0 0 0 0 0 0 0 0 0 0 0 0 0 0 0 0 0 0 0
8 9 11 14 15 14 13 10 6 2 0 0 0 0 0 0 0 0 0 0 0 0 0 0 0 0 0 0 0 0 0 0 0 0 0 0 0 0 0 0 0 0 0
6 7 10 13 16 17 16 13 9 5 1 0 0 0 0 0 0 0 0 0 0 0 0 0 0 0 0 0 0 0 0 0 0 0 0 0 0 0 0 0 0 0 0
6 8 9 12 15 16 15 14 11 8 3 1 1 0 0 0 0 0 0 0 0 0 0 0 0 0 0 0 0 0 0 0 0 0 0 0 0 0 0 0 0 0 0
8 9 9 11 13 14 14 12 11 9 7 5 4 1 0 0 0 0 0 0 0 0 0 0 0 0 0 0 0 0 0 0 0 0 0 0 0 0 0 0 0 0 0
9 9 10 10 11 11 11 10 9 10 10 8 6 2 0 0 0 0 0 0 0 0 0 0 0 0 0 0 0 0 0 0 0 0 0 0 0 0 0 0 0 0 0
7 8 9 9 9 8 7 7 9 10 10 8 5 2 1 2 2 1 0 0 0 0 0 0 0 0 0 0 0 0 0 0 0 0 0 0 0 0 0 0 0 0 0
4 5 6 7 7 7 6 7 8 9 8 6 4 2 2 3 4 3 1 0 0 0 0 0 0 0 0 0 0 0 0 0 0 0 0 0 0 0 0 0 0 0 0
2 3 4 6 8 8 8 8 8 7 5 3 3 3 2 2 4 3 1 0 0 0 0 0 0 0 0 0 0 0 0 0 0 0 0 0 0 0 0 0 0 0 0
2 2 3 5 7 7 7 7 7 5 3 1 1 2 2 1 2 2 0 0 0 0 0 0 0 0 0 0 0 0 0 0 0 0 0 0 0 0 0 0 0 0 0
1 2 1 2 3 3 3 4 5 3 2 1 0 1 1 1 1 1 0 0 0 0 0 0 0 0 0 0 0 0 0 0 0 0 0 0 0 0 0 0 0 0 0
0 0 0 0 1 1 1 2 2 1 1 0 0 0 0 0 0 0 0 0 0 0 0 0 0 0 0 0 0 0 0 0 0 0 0 0 0 0 0 0 0 0 0
0 0 0 0 0 0 0 1 1 0 0 0 0 0 0 0 0 0 0 0 0 0 0 0 0 0 0 0 0 0 0 0 0 0 0 0 0 0 0 0 0 0 0
0 0 0 0 0 0 0 0 0 0 0 0 0 0 0 0 0 0 0 0 0 0 0 0 0 0 0 0 0 0 0 0 0 0 0 0 0 0 0 0 0 0 0
0 0 0 0 0 0 0 0 0 0 0 0 0 0 0 0 0 0 0 0 0 0 0 0 0 0 0 0 0 0 0 0 0 0 0 0 0 0 0 0 0 0 0
Wind_Speed
8 9 10 9 9 9 9 8 8 8 7 8 8 8 8 8 8 8 8 7 7 7 8 8 9 9 10 10 11 12 12 12 12 12 12 11 12 12 11 11 11 10 14
10 11 10 10 9 9 9 9 9 8 7 7 7 7 7 7 7 7 7 7 7 7 7 7 8 9 9 10 10 11 10 10 10 10 10 9 10 11 12 12 12 9 13
10 11 10 9 9 9 9 9 8 8 7 7 7 7 7 7 6 6 6 7 6 6 6 7 8 8 9 9 9 9 8 7 6 6 6 5 7 11 12 12 12 13 13
9 10 9 9 9 9 9 8 8 7 7 6 6 6 6 7 6 6 6 7 6 6 6 7 8 8 9 8 8 8 6 5 3 2 3 5 5 10 11 11 12 12 12
7 9 9 10 9 9 8 8 8 7 7 6 6 6 6 6 6 6 7 7 7 6 6 6 7 8 8 8 7 7 5 3 2 2 4 6 5 9 11 11 11 11 11
6 8 9 9 9 8 8 8 7 7 7 6 6 5 6 6 6 6 6 7 7 7 7 7 7 7 8 7 7 5 3 2 2 2 4 5 5 9 11 11 10 10 10
6 7 9 9 9 8 7 7 7 6 6 6 5 5 5 5 5 6 6 7 7 7 6 7 7 7 7 7 6 5 3 3 2 3 4 5 5 10 10 10 10 9 10
6 6 7 8 8 8 7 7 6 6 5 5 5 4 5 5 5 5 6 6 6 6 6 6 7 6 6 6 4 4 3 3 2 4 5 5 8 10 9 9 9 8 8
5 5 5 5 6 7 7 7 6 5 4 4 4 3 4 4 4 5 5 5 5 5 5 6 6 6 5 5 4 3 2 2 2 2 5 4 8 9 9 8 8 8 8
4 4 4 4 4 4 5 6 6 5 4 3 3 3 3 3 3 4 4 4 4 5 5 5 5 5 4 4 3 1 1 1 1 3 3 5 8 9 8 8 7 7 7
3 3 3 3 3 3 3 5 5 4 4 3 2 3 3 2 2 3 4 4 4 5 5 5 5 4 3 2 2 1 1 1 2 3 3 7 8 8 7 7 7 7 7
3 3 3 3 3 3 2 3 2 2 3 2 2 2 1 1 2 2 4 5 5 5 4 4 4 4 2 1 1 1 1 1 2 3 4 8 8 8 7 6 6 7 7
3 3 3 3 3 3 2 2 1 1 1 1 2 1 1 1 1 2 2 2 3 3 2 2 2 1 2 2 2 1 1 1 2 2 4 8 8 7 6 6 6 6 7
2 2 3 3 3 2 2 1 1 1 1 1 1 1 1 1 1 1 1 2 2 1 2 2 1 1 1 2 3 2 2 1 2 2 4 7 7 6 6 6 6 6 6
2 3 3 3 3 3 2 1 1 1 1 1 1 1 1 1 1 1 1 2 2 2 2 2 1 1 1 1 2 2 2 2 2 3 3 6 6 6 5 5 5 5 6
1 2 3 3 3 3 2 2 1 1 1 1 1 1 1 1 1 1 1 1 1 1 1 2 2 2 1 1 1 1 1 1 2 3 3 4 5 5 4 4 4 5 6
2 2 2 2 3 3 3 2 1 1 1 1 1 1 1 1 1 1 1 1 1 1 1 1 1 1 2 2 2 1 1 1 2 2 3 3 3 3 4 3 3 4 5
1 2 2 2 2 2 2 1 1 2 1 1 1 1 1 1 1 1 1 1 1 1 1 1 1 1 1 2 1 1 1 1 1 2 2 3 2 2 2 3 2 3 4
1 2 2 2 2 2 2 1 1 1 1 1 1 1 1 1 1 1 1 0 1 1 1 1 1 2 2 1 1 1 1 1 1 2 2 2 2 2 2 2 3 2 2
1 2 2 2 2 1 1 1 1 1 1 1 1 1 2 2 2 2 2 1 1 1 1 1 1 1 2 2 1 1 1 1 1 1 1 1 1 2 2 2 2 2 2
3 2 1 1 1 1 1 1 2 2 2 1 1 2 2 2 2 2 2 2 2 1 1 1 1 2 1 1 2 1 1 0 1 1 1 1 1 1 1 2 2 2 1
3 2 1 0 1 1 1 1 1 2 2 2 1 2 2 2 2 2 2 2 2 2 2 2 2 1 1 1 2 2 1 1 1 1 1 1 1 1 1 1 1 1 1
4 3 2 1 1 1 1 1 1 1 0 0 1 1 2 2 2 2 2 2 2 2 3 3 3 3 2 1 1 2 2 2 1 1 2 1 1 1 1 1 1 1 1
4 4 3 2 1 1 1 2 3 2 2 2 2 2 2 2 3 3 3 2 2 2 2 3 3 2 3 2 1 1 1 2 2 1 1 1 2 2 1 1 1 1 1
5 4 4 3 2 1 0 2 2 2 1 1 1 2 3 2 3 3 3 3 2 2 2 3 2 2 2 3 2 1 1 0 1 2 2 1 1 1 2 2 2 1 1
7 6 5 4 3 2 1 0 2 3 2 2 2 2 2 2 2 3 2 3 3 2 3 3 3 3 3 3 2 2 2 2 2 2 2 2 2 2 2 2 2 2 1
Wind_Direction
115 125 128 124 121 117 113 106 104 106 104 104 103 102 103 98 93 90 91 92 93 95 101 102 99 94 89 86 85 82 82 82 83 84 80 80 82 84 83 81 81 77 80
121 127 126 124 122 118 112 105 99 99 101 103 106 105 106 107 102 96 92 94 96 98 100 104 102 99 95 92 91 88 87 88 91 91 86 79 80 82 81 79 84 86 84
117 125 126 121 121 118 113 108 102 97 97 99 103 105 107 110 110 104 99 98 97 99 100 102 99 100 98 97 96 95 93 94 98 103 102 96 88 87 87 86 87 88 87
119 126 129 123 122 120 115 111 105 101 96 96 100 104 105 106 107 107 102 96 92 93 94 95 95 98 100 99 99 99 98 87 82 84 99 98 95 94 93 91 92 90 89
116 122 123 125 122 121 117 113 109 103 99 94 94 98 102 105 105 103 96 91 86 85 90 97 98 99 101 102 104 103 97 74 47 83 83 85 87 98 96 93 94 92 89
114 119 123 123 122 120 120 116 112 110 103 96 91 94 99 102 103 99 94 89 83 86 92 98 103 102 100 100 102 99 89 53 28 82 90 93 93 103 100 97 97 96 93
107 113 128 125 123 121 119 118 115 113 110 106 100 100 106 106 105 102 96 94 91 91 97 100 102 102 100 98 96 90 65 55 57 72 81 88 98 107 105 102 99 99 96
104 110 127 128 129 126 123 119 117 116 117 115 111 107 110 111 107 105 102 100 102 102 102 105 102 103 105 104 99 83 56 46 66 81 87 89 102 106 106 105 103 101 100
100 108 119 132 132 131 127 124 125 124 120 119 116 113 114 115 117 117 111 108 112 111 109 108 103 101 109 112 106 90 64 41 24 77 93 90 103 106 105 103 105 104 104
103 112 124 133 126 125 126 124 129 135 135 135 129 119 122 126 131 129 121 117 122 118 113 115 113 107 104 112 117 108 84 24 73 73 84 99 105 106 105 104 102 105 106
121 127 134 136 129 129 135 136 138 143 151 150 142 144 149 153 150 144 132 131 133 129 126 122 121 116 113 113 125 130 93 90 99 85 87 108 112 109 108 108 106 105 105
154 154 149 144 140 138 139 134 140 143 146 159 154 143 156 170 159 145 138 146 141 132 131 134 132 133 128 141 138 126 105 101 96 94 103 116 119 117 115 113 109 110 108
163 156 155 146 142 139 139 143 139 140 142 157 151 160 163 150 130 125 129 136 136 135 135 139 154 174 170 154 147 156 140 98 93 96 107 119 123 127 124 123 119 115 114
158 155 151 144 144 142 142 152 153 149 145 158 152 154 141 134 136 144 144 149 150 154 153 163 189 188 175 160 151 150 147 116 104 101 109 118 121 127 131 130 129 124 126
180 167 153 156 158 155 153 171 158 152 153 167 158 160 115 121 147 155 163 160 167 159 164 174 188 173 156 150 143 148 143 139 128 111 112 120 119 119 132 142 142 139 137
184 168 164 169 168 166 168 171 163 155 161 165 160 160 145 142 146 159 151 161 174 173 171 177 181 169 153 134 120 118 121 124 127 122 124 123 121 122 129 147 154 155 152
187 173 154 164 165 176 176 174 160 162 166 171 172 157 146 137 147 160 142 150 162 162 158 164 145 126 126 117 120 117 113 108 116 117 123 131 134 131 134 146 152 164 163
148 154 154 159 166 184 176 171 166 165 165 164 153 143 148 116 126 116 126 156 157 134 136 142 136 108 104 114 116 124 114 118 116 112 115 125 133 139 144 140 153 157 166
159 150 153 143 166 187 170 158 155 163 169 166 155 151 151 131 129 115 111 122 117 113 124 139 131 135 133 127 119 95 84 96 107 108 111 121 132 136 144 145 145 157 162
78 114 133 142 144 157 162 153 158 160 164 170 164 162 153 151 155 141 143 146 117 124 130 138 144 128 131 132 116 94 83 95 91 116 139 131 134 143 147 151 162 176 167
34 56 100 132 135 138 168 179 185 190 187 183 174 168 167 165 164 155 156 152 153 155 156 142 130 128 126 120 103 90 3 36 148 159 150 144 145 141 138 141 159 164 170
31 16 4 188 169 173 194 191 180 184 185 179 177 174 177 176 169 171 171 170 169 161 159 154 150 151 172 162 145 141 174 297 284 206 161 165 169 137 137 139 132 137 150
10 358 330 309 212 185 184 170 151 130 99 159 181 184 194 184 172 172 179 176 179 172 176 178 174 171 182 213 190 158 160 197 220 240 207 182 170 158 179 192 187 186 172
0 0 349 346 319 181 171 169 175 180 198 229 205 193 188 175 173 172 182 186 187 189 186 187 187 181 174 191 226 241 196 154 147 175 263 225 203 190 192 200 218 209 183
1 1 350 357 342 353 74 180 185 202 223 215 206 200 191 177 172 179 182 182 186 189 195 195 191 196 190 189 187 193 240 264 171 160 214 233 238 225 206 200 207 210 202
2 1 355 353 339 347 349 229 202 209 210 194 214 212 197 182 176 182 185 184 186 188 199 202 195 199 203 201 198 188 184 186 198 179 195 209 227 247 227 205 201 204 205